Weather in Tabuk

Saudi Arabia     28°23′40″N   36°34′16″E
temp.,
°C
wind,
m/s
gust,
m/s
humid.,
%
clouds,
%
prec.,
mm/h
press.,
hPa
HPBL,
m
27 july, tue
tue2700:00+30nnw711340 0.0 1008367
03:00+28nnw710400 0.0 1008351
06:00+26n58440 0.0 1008207
09:00+31nne44310 0.0 1009762
12:00+35ene11210 0.0 10071312
15:00+39w23140 0.0 10041577
18:00+39nnw54130 0.0 10031528
21:00+35n58173 0.0 1005252
28 july, wed
wed2800:00+30nnw462210 0.0 1007161
03:00+27n572851 0.0 1006187
06:00+26n453659 0.0 1007135
09:00+30n22240 0.0 1007622
12:00+34s11160 0.0 10051084
15:00+39wnw45110 0.0 10021676
18:00+40nw35100 0.0 10001977
21:00+32nnw913190 0.0 1004395
29 july, thu
thu2900:00+29nnw711240 0.0 1005378
03:00+26n58350 0.0 1005266
06:00+24nnw34400 0.0 1006132
09:00+28nnw33290 0.0 1006633
12:00+33sw11180 0.0 10041270
15:00+37wnw34100 0.0 10011943
18:00+38n5590 0.0 10001582
21:00+32nnw7111295 0.0 1003336
30 july, fri
fri3000:00+29nw5923100 0.0 1004292
03:00+26nnw5832100 0.0 1004197
06:00+24n344039 0.0 1005111
09:00+29nnw11300 0.0 1006519
12:00+34s23180 0.0 10041386
15:00+37nnw2490 0.0 10012021
18:00+38n4483 0.0 10001889
21:00+32wsw710160 0.0 1003291
31 july, sat
sat3100:00+29wnw33185 0.0 1004127
03:00+27nw44201 0.0 1004117
06:00+26nw33245 0.0 100583
09:00+30nw22215 0.0 1005488
12:00+35sw22120 0.0 10041351
15:00+38se1484 0.0 10022729
18:00+38wsw7596 0.0 10012310
21:00+32wsw69165 0.0 1005275